Location: Treviso
(45.6669°N, 12.2430°E)
Time: 00:42:14
(UTC+02:00)

ISS - Pass Details

Date: 29 May 2017
Orbit: 402 x 408 km, 51.6° (Epoch: 30 May)

Event Time Altitude Azimuth Distance (km) Brightness Sun altitude
Rises 00:49:38 0° 296° (WNW) 2,334 0.5 -22.6°
Reaches altitude 10° 00:51:49 10° 306° (NW) 1,471 -0.5 -22.6°
Maximum altitude 00:54:55 36° 15° (NNE) 661 -2.3 -22.7°
Enters shadow 00:56:00 28° 57° (ENE) 807 -2.1 -22.7°
